PC12 LFMQ-LGKR

Flight info

Callsign PC12
Flight time N/A
Altitude 23000
Route NASIK P856 DIVUL DCT MOULE DCT TAQ/N0272F250 DCT ERIKA DCT TOPNO
Aircraft PC12/L-SDFGRWY/S

Departure

Time 2026-04-17 15:43
Airport Le Castellet Airport (LFMQ)

Arrival

Time N/A
Airport Corfu Ioannis Kapodistrias International Airport (LGKR)
Time Latitude Longitude Altitude Speed Heading
2026-04-17 15:43 43.25930 6.20738 12327 ft 214 kts 85°
2026-04-17 15:43 43.26004 6.22789 12630 ft 214 kts 85°
2026-04-17 15:43 43.26078 6.24832 12937 ft 215 kts 85°
2026-04-17 15:43 43.26153 6.26881 13245 ft 215 kts 84°
2026-04-17 15:44 43.26227 6.28936 13562 ft 215 kts 84°
2026-04-17 15:44 43.26299 6.30985 13880 ft 216 kts 85°
2026-04-17 15:44 43.26371 6.33044 14158 ft 217 kts 85°
2026-04-17 15:44 43.26445 6.35115 14440 ft 217 kts 84°
2026-04-17 15:45 43.26518 6.37190 14725 ft 219 kts 84°
2026-04-17 15:45 43.26589 6.39276 15012 ft 219 kts 84°
2026-04-17 15:45 43.26661 6.41363 15301 ft 219 kts 85°
2026-04-17 15:45 43.26734 6.43459 15594 ft 220 kts 84°
2026-04-17 15:46 43.26806 6.45558 15890 ft 221 kts 84°
2026-04-17 15:46 43.26878 6.47663 16194 ft 221 kts 85°
2026-04-17 15:46 43.26947 6.49745 16491 ft 221 kts 85°
2026-04-17 15:46 43.27018 6.51854 16795 ft 221 kts 85°
2026-04-17 15:47 43.27089 6.53961 17102 ft 221 kts 85°
2026-04-17 15:47 43.27160 6.56068 17413 ft 221 kts 85°
2026-04-17 15:47 43.27229 6.58176 17737 ft 221 kts 85°
2026-04-17 15:47 43.27299 6.60284 18058 ft 221 kts 85°
2026-04-17 15:48 43.27368 6.62389 18366 ft 221 kts 84°
2026-04-17 15:48 43.27437 6.64495 18646 ft 221 kts 85°
2026-04-17 15:48 43.27505 6.66604 18924 ft 221 kts 85°
2026-04-17 15:48 43.27573 6.68716 19198 ft 221 kts 85°
2026-04-17 15:49 43.27641 6.70827 19492 ft 222 kts 85°
2026-04-17 15:49 43.27708 6.72939 19778 ft 222 kts 85°
2026-04-17 15:49 43.27775 6.75052 20066 ft 222 kts 85°
2026-04-17 15:49 43.27842 6.77168 20358 ft 222 kts 85°
2026-04-17 15:50 43.27908 6.79285 20654 ft 222 kts 85°
2026-04-17 15:50 43.27974 6.81382 20948 ft 222 kts 85°
2026-04-17 15:50 43.28039 6.83503 21249 ft 223 kts 85°
2026-04-17 15:50 43.28105 6.85632 21560 ft 223 kts 85°
2026-04-17 15:51 43.28171 6.87754 21870 ft 223 kts 85°
2026-04-17 15:51 43.28236 6.89879 22180 ft 223 kts 85°
2026-04-17 15:51 43.28300 6.92006 22494 ft 223 kts 85°
2026-04-17 15:51 43.28364 6.94133 22812 ft 223 kts 85°
2026-04-17 15:52 43.28428 6.96280 22986 ft 230 kts 85°
2026-04-17 15:52 43.28495 6.98512 22991 ft 242 kts 85°
2026-04-17 15:52 43.28563 7.00869 22997 ft 251 kts 85°
2026-04-17 15:52 43.28633 7.03301 23000 ft 258 kts 85°
2026-04-17 15:53 43.28705 7.05791 23002 ft 263 kts 85°
2026-04-17 15:53 43.28777 7.08315 23004 ft 266 kts 85°
2026-04-17 15:53 43.28849 7.10864 23005 ft 269 kts 85°
2026-04-17 15:53 43.28921 7.13399 23002 ft 268 kts 86°
2026-04-17 15:54 43.28990 7.15924 22996 ft 261 kts 86°
2026-04-17 15:54 43.29058 7.18376 22993 ft 254 kts 85°
2026-04-17 15:54 43.29126 7.20784 22992 ft 249 kts 85°
2026-04-17 15:54 43.29191 7.23144 22990 ft 246 kts 85°
2026-04-17 15:55 43.29255 7.25475 22993 ft 243 kts 85°
2026-04-17 15:55 43.29318 7.27787 22993 ft 243 kts 85°
2026-04-17 15:55 43.29382 7.30133 22994 ft 248 kts 85°
2026-04-17 15:55 43.29447 7.32533 22997 ft 254 kts 86°
2026-04-17 15:56 43.29511 7.34979 22996 ft 258 kts 86°
2026-04-17 15:56 43.29575 7.37426 22997 ft 261 kts 86°
2026-04-17 15:56 43.29639 7.39928 22998 ft 264 kts 86°
2026-04-17 15:56 43.29705 7.42459 22999 ft 266 kts 86°
2026-04-17 15:57 43.29770 7.44998 23002 ft 267 kts 86°
2026-04-17 15:57 43.29834 7.47550 23002 ft 267 kts 86°
2026-04-17 15:57 43.29898 7.50110 23003 ft 268 kts 86°
2026-04-17 15:57 43.29962 7.52667 23003 ft 268 kts 86°
2026-04-17 15:58 43.30025 7.55226 22999 ft 268 kts 86°
2026-04-17 15:58 43.30088 7.57794 22999 ft 269 kts 86°
2026-04-17 15:58 43.30147 7.60327 23001 ft 268 kts 86°
2026-04-17 15:58 43.29919 7.62870 22996 ft 271 kts 104°
2026-04-17 15:59 43.29240 7.65285 22996 ft 272 kts 111°
2026-04-17 15:59 43.28498 7.67676 22997 ft 272 kts 111°
2026-04-17 15:59 43.27759 7.70064 22997 ft 272 kts 111°
2026-04-17 15:59 43.27024 7.72458 22997 ft 272 kts 111°
2026-04-17 16:00 43.26287 7.74853 22993 ft 272 kts 111°
2026-04-17 16:00 43.25547 7.77247 22993 ft 272 kts 111°
2026-04-17 16:00 43.24807 7.79641 22993 ft 272 kts 111°
2026-04-17 16:00 43.24067 7.82033 22996 ft 272 kts 111°
2026-04-17 16:01 43.23325 7.84433 22997 ft 272 kts 111°
2026-04-17 16:01 43.22585 7.86821 22997 ft 272 kts 111°
2026-04-17 16:01 43.21845 7.89209 22997 ft 272 kts 111°
2026-04-17 16:01 43.21103 7.91597 22994 ft 272 kts 111°
2026-04-17 16:02 43.20361 7.93987 22994 ft 272 kts 111°
2026-04-17 16:02 43.19629 7.96342 22994 ft 272 kts 111°
2026-04-17 16:02 43.18885 7.98731 23001 ft 272 kts 111°
2026-04-17 16:02 43.18141 8.01118 23001 ft 272 kts 111°
2026-04-17 16:03 43.17397 8.03507 23001 ft 272 kts 111°
2026-04-17 16:03 43.16652 8.05894 23001 ft 272 kts 111°
2026-04-17 16:03 43.15908 8.08276 23001 ft 272 kts 111°
2026-04-17 16:03 43.15162 8.10663 23001 ft 272 kts 111°
2026-04-17 16:04 43.14415 8.13048 23001 ft 272 kts 111°
2026-04-17 16:04 43.13670 8.15428 23001 ft 272 kts 111°
2026-04-17 16:04 43.12921 8.17816 23001 ft 273 kts 111°
2026-04-17 16:04 43.12172 8.20203 23001 ft 273 kts 111°
2026-04-17 16:05 43.11422 8.22591 23001 ft 273 kts 111°
2026-04-17 16:05 43.10680 8.24951 23001 ft 273 kts 111°
2026-04-17 16:05 43.09929 8.27340 23001 ft 273 kts 111°
2026-04-17 16:05 43.09178 8.29725 23001 ft 273 kts 111°
2026-04-17 16:06 43.08427 8.32108 23001 ft 273 kts 111°
2026-04-17 16:06 43.07675 8.34490 23008 ft 273 kts 111°
2026-04-17 16:06 43.06919 8.36884 23002 ft 273 kts 111°
2026-04-17 16:06 43.06165 8.39268 23002 ft 273 kts 111°
2026-04-17 16:07 43.05412 8.41650 23002 ft 273 kts 111°
2026-04-17 16:07 43.04657 8.44034 23002 ft 273 kts 111°
2026-04-17 16:07 43.03903 8.46414 23002 ft 273 kts 111°
2026-04-17 16:07 43.03149 8.48790 23002 ft 273 kts 111°
2026-04-17 16:08 43.02404 8.51138 23002 ft 273 kts 111°
2026-04-17 16:08 43.01650 8.53511 23002 ft 273 kts 111°
2026-04-17 16:08 43.00893 8.55891 23002 ft 272 kts 111°
2026-04-17 16:08 43.00138 8.58262 23002 ft 272 kts 111°
2026-04-17 16:09 42.99382 8.60637 23002 ft 272 kts 111°
2026-04-17 16:09 42.98624 8.63015 23002 ft 272 kts 111°
2026-04-17 16:09 42.97868 8.65382 23002 ft 272 kts 111°
2026-04-17 16:09 42.97111 8.67752 23002 ft 272 kts 111°
2026-04-17 16:10 42.96353 8.70122 23002 ft 272 kts 111°
2026-04-17 16:10 42.95596 8.72488 23002 ft 272 kts 111°
2026-04-17 16:10 42.94835 8.74863 23002 ft 272 kts 111°
2026-04-17 16:10 42.94077 8.77226 23002 ft 272 kts 111°
2026-04-17 16:11 42.93328 8.79561 22999 ft 272 kts 111°
2026-04-17 16:11 42.92570 8.81921 23002 ft 272 kts 111°
2026-04-17 16:11 42.91801 8.84314 23002 ft 272 kts 111°
2026-04-17 16:11 42.91051 8.86645 23002 ft 272 kts 111°
2026-04-17 16:12 42.90292 8.89002 23002 ft 272 kts 111°
2026-04-17 16:12 42.89532 8.91362 23002 ft 272 kts 111°
2026-04-17 16:12 42.88771 8.93721 23002 ft 271 kts 111°
2026-04-17 16:12 42.88009 8.96079 23002 ft 271 kts 111°
2026-04-17 16:13 42.87247 8.98438 23002 ft 271 kts 111°
2026-04-17 16:13 42.86486 9.00791 23002 ft 271 kts 111°
2026-04-17 16:13 42.85726 9.03138 23002 ft 270 kts 111°
2026-04-17 16:13 42.84967 9.05482 23002 ft 270 kts 111°
2026-04-17 16:14 42.83457 9.10134 22996 ft 270 kts 111°
2026-04-17 16:14 42.82695 9.12480 22996 ft 270 kts 111°
2026-04-17 16:14 42.81934 9.14820 22999 ft 270 kts 111°
2026-04-17 16:15 42.81174 9.17157 22999 ft 270 kts 111°
2026-04-17 16:15 42.80414 9.19491 22999 ft 270 kts 111°
2026-04-17 16:15 42.79653 9.21825 22999 ft 270 kts 111°
2026-04-17 16:15 42.78891 9.24160 22991 ft 270 kts 111°
2026-04-17 16:16 42.78129 9.26493 22994 ft 270 kts 111°
2026-04-17 16:16 42.77365 9.28830 22994 ft 270 kts 111°
2026-04-17 16:16 42.76602 9.31163 22994 ft 270 kts 111°
2026-04-17 16:16 42.75839 9.33493 22994 ft 270 kts 111°
2026-04-17 16:17 42.75075 9.35825 22991 ft 270 kts 111°
2026-04-17 16:17 42.74311 9.38155 22989 ft 270 kts 111°
2026-04-17 16:17 42.73546 9.40487 22986 ft 270 kts 111°
2026-04-17 16:17 42.72782 9.42811 22988 ft 269 kts 111°
2026-04-17 16:18 42.72027 9.45107 22985 ft 269 kts 111°
2026-04-17 16:18 42.71261 9.47434 22987 ft 269 kts 111°
2026-04-17 16:18 42.70495 9.49758 22987 ft 269 kts 111°
2026-04-17 16:18 42.69731 9.52077 22987 ft 269 kts 111°
2026-04-17 16:19 42.68965 9.54399 22986 ft 269 kts 111°
2026-04-17 16:19 42.68199 9.56719 22986 ft 269 kts 111°
2026-04-17 16:19 42.67430 9.59046 22987 ft 269 kts 111°
2026-04-17 16:19 42.66662 9.61366 22986 ft 269 kts 111°
2026-04-17 16:20 42.65905 9.63652 22986 ft 269 kts 111°
2026-04-17 16:20 42.65137 9.65971 22986 ft 269 kts 111°
2026-04-17 16:20 42.64369 9.68285 22986 ft 269 kts 111°
2026-04-17 16:20 42.63601 9.70599 22983 ft 269 kts 111°
2026-04-17 16:21 42.62831 9.72919 22982 ft 269 kts 111°
2026-04-17 16:21 42.62096 9.75253 22981 ft 268 kts 105°
2026-04-17 16:21 42.61612 9.77684 22983 ft 267 kts 101°
2026-04-17 16:21 42.61142 9.80128 22983 ft 267 kts 102°
2026-04-17 16:22 42.60664 9.82567 22982 ft 268 kts 102°
2026-04-17 16:22 42.60182 9.85012 22977 ft 268 kts 102°
2026-04-17 16:22 42.59701 9.87460 22978 ft 268 kts 102°
2026-04-17 16:22 42.59222 9.89904 22977 ft 268 kts 102°
2026-04-17 16:23 42.58742 9.92342 22974 ft 267 kts 102°
2026-04-17 16:23 42.58262 9.94779 22971 ft 267 kts 102°
2026-04-17 16:23 42.57782 9.97216 22970 ft 267 kts 102°
2026-04-17 16:23 42.57308 9.99618 22967 ft 267 kts 102°
2026-04-17 16:24 42.56828 10.02045 22967 ft 267 kts 102°
2026-04-17 16:24 42.56347 10.04475 22967 ft 266 kts 102°
2026-04-17 16:24 42.55867 10.06902 22967 ft 266 kts 102°
2026-04-17 16:24 42.55386 10.09327 22967 ft 266 kts 102°
2026-04-17 16:25 42.54905 10.11751 22967 ft 266 kts 102°
2026-04-17 16:25 42.54423 10.14171 22964 ft 266 kts 102°
2026-04-17 16:25 42.54097 10.15812 22964 ft 266 kts 102°
2026-04-17 16:25 42.53620 10.18205 22964 ft 266 kts 102°
2026-04-17 16:26 42.53138 10.20624 22971 ft 266 kts 102°
2026-04-17 16:26 42.52653 10.23050 22967 ft 266 kts 102°
2026-04-17 16:26 42.52169 10.25470 22967 ft 266 kts 102°
2026-04-17 16:26 42.51685 10.27887 22962 ft 266 kts 102°
2026-04-17 16:27 42.51200 10.30309 22962 ft 266 kts 102°
2026-04-17 16:27 42.50715 10.32728 22962 ft 266 kts 102°
2026-04-17 16:27 42.50229 10.35145 22962 ft 266 kts 102°
2026-04-17 16:27 42.49742 10.37569 22962 ft 267 kts 102°
2026-04-17 16:28 42.49252 10.40000 22962 ft 267 kts 102°
2026-04-17 16:28 42.48763 10.42429 22962 ft 267 kts 102°
2026-04-17 16:28 42.48272 10.44860 22960 ft 267 kts 102°
2026-04-17 16:28 42.47788 10.47254 22960 ft 267 kts 102°
2026-04-17 16:29 42.47297 10.49682 22960 ft 267 kts 102°
2026-04-17 16:29 42.46804 10.52114 22960 ft 267 kts 102°
2026-04-17 16:29 42.46312 10.54541 22960 ft 267 kts 102°
2026-04-17 16:29 42.45819 10.56967 22960 ft 267 kts 102°
2026-04-17 16:30 42.45326 10.59390 22952 ft 267 kts 102°
2026-04-17 16:30 42.44832 10.61816 22952 ft 267 kts 102°
2026-04-17 16:30 42.44338 10.64240 22953 ft 267 kts 102°
2026-04-17 16:30 42.43844 10.66663 22952 ft 267 kts 102°
2026-04-17 16:31 42.43350 10.69081 22952 ft 267 kts 102°
2026-04-17 16:31 42.42854 10.71504 22954 ft 267 kts 102°
2026-04-17 16:31 42.42359 10.73922 22950 ft 267 kts 102°
2026-04-17 16:31 42.41863 10.76340 22955 ft 267 kts 102°
2026-04-17 16:32 42.41367 10.78757 22950 ft 266 kts 102°
2026-04-17 16:32 42.40871 10.81173 22955 ft 266 kts 102°
2026-04-17 16:32 42.40374 10.83587 22950 ft 266 kts 102°
2026-04-17 16:32 42.39882 10.85979 22950 ft 267 kts 102°
2026-04-17 16:33 42.39384 10.88391 22952 ft 267 kts 102°
2026-04-17 16:33 42.38884 10.90813 22953 ft 268 kts 102°
2026-04-17 16:33 42.38383 10.93238 22948 ft 268 kts 102°
2026-04-17 16:33 42.37880 10.95666 22948 ft 268 kts 102°
2026-04-17 16:34 42.37378 10.98090 22948 ft 268 kts 102°
2026-04-17 16:34 42.36875 11.00513 22950 ft 268 kts 102°
2026-04-17 16:34 42.36372 11.02934 22942 ft 268 kts 102°
2026-04-17 16:34 42.35868 11.05359 22944 ft 267 kts 102°
2026-04-17 16:35 42.35364 11.07780 22942 ft 267 kts 102°
2026-04-17 16:35 42.34865 11.10176 22945 ft 267 kts 102°
2026-04-17 16:35 42.34361 11.12592 22946 ft 267 kts 102°
2026-04-17 16:35 42.33856 11.15009 22946 ft 267 kts 102°
2026-04-17 16:36 42.33351 11.17424 22945 ft 267 kts 102°
2026-04-17 16:36 42.32845 11.19838 22946 ft 267 kts 102°
2026-04-17 16:36 42.32339 11.22251 22945 ft 267 kts 102°
2026-04-17 16:36 42.31834 11.24659 22945 ft 267 kts 102°
2026-04-17 16:37 42.31328 11.27070 22945 ft 267 kts 102°
2026-04-17 16:37 42.30821 11.29480 22948 ft 266 kts 102°
2026-04-17 16:37 42.30313 11.31891 22932 ft 267 kts 102°
2026-04-17 16:37 42.29804 11.34303 22925 ft 267 kts 102°
2026-04-17 16:38 42.29295 11.36713 22928 ft 267 kts 102°
2026-04-17 16:38 42.28786 11.39123 22928 ft 267 kts 102°
2026-04-17 16:38 42.28276 11.41534 22925 ft 267 kts 102°
2026-04-17 16:38 42.27766 11.43944 22933 ft 267 kts 102°
2026-04-17 16:39 42.27253 11.46359 22919 ft 267 kts 102°
2026-04-17 16:39 42.26748 11.48738 22919 ft 267 kts 102°
2026-04-17 16:39 42.26237 11.51143 22924 ft 267 kts 102°
2026-04-17 16:39 42.25725 11.53552 22926 ft 267 kts 102°
2026-04-17 16:40 42.25212 11.55955 22921 ft 267 kts 102°
2026-04-17 16:40 42.24699 11.58365 22922 ft 267 kts 102°
2026-04-17 16:40 42.24185 11.60770 22916 ft 267 kts 102°
2026-04-17 16:40 42.23672 11.63171 22918 ft 267 kts 102°
2026-04-17 16:41 42.23156 11.65580 22918 ft 267 kts 102°
2026-04-17 16:41 42.22641 11.67983 22931 ft 267 kts 102°
2026-04-17 16:41 42.22126 11.70385 22933 ft 267 kts 102°
2026-04-17 16:41 42.21616 11.72761 22934 ft 267 kts 102°
2026-04-17 16:42 42.21033 11.75147 22923 ft 268 kts 104°
2026-04-17 16:42 42.20452 11.77535 22927 ft 268 kts 104°
2026-04-17 16:42 42.19874 11.79930 22926 ft 269 kts 104°
2026-04-17 16:42 42.19285 11.82324 22927 ft 269 kts 104°
2026-04-17 16:43 42.18691 11.84720 22952 ft 269 kts 104°
2026-04-17 16:43 42.18100 11.87111 22967 ft 269 kts 104°
2026-04-17 16:43 42.17509 11.89506 22984 ft 269 kts 104°
2026-04-17 16:43 42.16917 11.91904 22995 ft 270 kts 104°
2026-04-17 16:44 42.16323 11.94302 23016 ft 270 kts 104°
2026-04-17 16:44 42.15738 11.96663 23022 ft 269 kts 104°
2026-04-17 16:44 42.15143 11.99059 23036 ft 269 kts 104°
2026-04-17 16:44 42.14549 12.01452 23052 ft 269 kts 104°
2026-04-17 16:45 42.13953 12.03851 23063 ft 269 kts 104°
2026-04-17 16:45 42.13358 12.06243 23066 ft 269 kts 104°
2026-04-17 16:45 42.12761 12.08639 23075 ft 269 kts 104°
2026-04-17 16:45 42.12164 12.11035 23085 ft 269 kts 104°
2026-04-17 16:46 42.11568 12.13422 23092 ft 269 kts 104°
2026-04-17 16:46 42.10973 12.15806 23099 ft 269 kts 104°
2026-04-17 16:46 42.10376 12.18194 23101 ft 269 kts 104°
2026-04-17 16:46 42.09778 12.20582 22904 ft 269 kts 104°
2026-04-17 16:47 42.09203 12.22877 22902 ft 269 kts 104°
2026-04-17 16:47 42.08612 12.25236 22904 ft 270 kts 104°
2026-04-17 16:47 42.08012 12.27624 22902 ft 270 kts 104°
2026-04-17 16:47 42.07408 12.30028 22902 ft 270 kts 104°
2026-04-17 16:48 42.06807 12.32417 22904 ft 270 kts 104°
2026-04-17 16:48 42.06205 12.34809 22901 ft 270 kts 104°
2026-04-17 16:48 42.05602 12.37200 22902 ft 270 kts 104°
2026-04-17 16:48 42.04999 12.39592 22902 ft 270 kts 104°
2026-04-17 16:49 42.04395 12.41981 22905 ft 270 kts 104°
2026-04-17 16:49 42.03791 12.44373 22906 ft 269 kts 105°
2026-04-17 16:49 42.03186 12.46760 22906 ft 269 kts 105°
2026-04-17 16:49 42.02584 12.49138 22906 ft 269 kts 105°
2026-04-17 16:50 42.01978 12.51530 22907 ft 269 kts 105°
2026-04-17 16:50 42.01374 12.53907 22907 ft 269 kts 105°
2026-04-17 16:50 42.00768 12.56291 22906 ft 269 kts 105°
2026-04-17 16:50 42.00163 12.58669 22906 ft 269 kts 105°
2026-04-17 16:51 41.99567 12.61013 22907 ft 269 kts 105°
2026-04-17 16:51 41.98962 12.63385 22907 ft 269 kts 105°
2026-04-17 16:51 41.98356 12.65760 22906 ft 268 kts 105°
2026-04-17 16:51 41.97752 12.68127 22906 ft 269 kts 105°
2026-04-17 16:52 41.97143 12.70510 22906 ft 269 kts 105°
2026-04-17 16:52 41.96534 12.72888 22906 ft 270 kts 105°
2026-04-17 16:52 41.95924 12.75271 22907 ft 270 kts 105°
2026-04-17 16:52 41.95312 12.77657 22928 ft 270 kts 105°
2026-04-17 16:53 41.94701 12.80037 22926 ft 270 kts 105°
2026-04-17 16:53 41.94089 12.82422 22924 ft 270 kts 105°
2026-04-17 16:53 41.93473 12.84814 22922 ft 270 kts 105°
2026-04-17 16:53 41.92859 12.87199 22920 ft 270 kts 105°
2026-04-17 16:54 41.92246 12.89579 22919 ft 269 kts 105°
2026-04-17 16:54 41.91635 12.91947 22929 ft 268 kts 105°
2026-04-17 16:54 41.91023 12.94318 22927 ft 269 kts 105°
2026-04-17 16:54 41.90409 12.96692 22928 ft 269 kts 105°
2026-04-17 16:55 41.89794 12.99071 22926 ft 269 kts 105°
2026-04-17 16:55 41.89187 13.01412 22925 ft 268 kts 105°
2026-04-17 16:55 41.88576 13.03772 22926 ft 268 kts 105°
2026-04-17 16:55 41.87963 13.06137 22925 ft 268 kts 105°
2026-04-17 16:56 41.87350 13.08496 22941 ft 268 kts 105°
2026-04-17 16:56 41.86733 13.10870 22941 ft 269 kts 105°
2026-04-17 16:56 41.86116 13.13240 22938 ft 269 kts 105°
2026-04-17 16:56 41.85497 13.15616 22936 ft 270 kts 105°
2026-04-17 16:57 41.84878 13.17988 22936 ft 269 kts 105°
2026-04-17 16:57 41.84260 13.20357 22937 ft 269 kts 105°
2026-04-17 16:57 41.83642 13.22721 22939 ft 268 kts 105°
2026-04-17 16:57 41.83024 13.25086 22938 ft 268 kts 105°
2026-04-17 16:58 41.82408 13.27440 22938 ft 268 kts 105°
2026-04-17 16:58 41.81791 13.29795 22937 ft 267 kts 105°
2026-04-17 16:58 41.81175 13.32142 22940 ft 267 kts 105°
2026-04-17 16:58 41.80556 13.34498 22936 ft 268 kts 105°
2026-04-17 16:59 41.79936 13.36857 22938 ft 268 kts 105°
2026-04-17 16:59 41.79317 13.39210 22933 ft 267 kts 105°
2026-04-17 16:59 41.78707 13.41524 22934 ft 267 kts 105°
2026-04-17 16:59 41.78090 13.43870 22937 ft 267 kts 105°
2026-04-17 17:00 41.77472 13.46212 22935 ft 267 kts 105°
2026-04-17 17:00 41.76851 13.48563 22935 ft 267 kts 105°
2026-04-17 17:00 41.76230 13.50913 22944 ft 268 kts 105°
2026-04-17 17:00 41.75608 13.53263 22943 ft 268 kts 105°
2026-04-17 17:01 41.74984 13.55617 22947 ft 268 kts 105°
2026-04-17 17:01 41.74360 13.57972 22948 ft 268 kts 105°
2026-04-17 17:01 41.73736 13.60327 22947 ft 268 kts 105°
2026-04-17 17:01 41.73111 13.62675 22950 ft 268 kts 105°
2026-04-17 17:02 41.72494 13.64998 22953 ft 268 kts 105°
2026-04-17 17:02 41.71861 13.67375 22952 ft 267 kts 105°
2026-04-17 17:02 41.71238 13.69717 22956 ft 267 kts 105°
2026-04-17 17:02 41.70621 13.72030 22956 ft 268 kts 105°
2026-04-17 17:03 41.69994 13.74378 22950 ft 268 kts 105°
2026-04-17 17:03 41.69366 13.76731 22950 ft 268 kts 105°
2026-04-17 17:03 41.68739 13.79076 22952 ft 268 kts 105°
2026-04-17 17:03 41.68110 13.81425 22953 ft 268 kts 105°
2026-04-17 17:04 41.67482 13.83769 22956 ft 268 kts 105°
2026-04-17 17:04 41.66854 13.86112 22964 ft 268 kts 105°
2026-04-17 17:04 41.66224 13.88460 22955 ft 268 kts 105°
2026-04-17 17:04 41.65593 13.90809 22954 ft 269 kts 105°
2026-04-17 17:05 41.64961 13.93159 22953 ft 269 kts 105°
2026-04-17 17:05 41.64326 13.95518 22953 ft 270 kts 105°
2026-04-17 17:05 41.63691 13.97877 22952 ft 270 kts 105°
2026-04-17 17:05 41.63055 14.00235 22952 ft 269 kts 105°
2026-04-17 17:06 41.62428 14.02555 22954 ft 269 kts 105°
2026-04-17 17:06 41.61723 14.04875 22949 ft 268 kts 108°
2026-04-17 17:06 41.61009 14.07180 22954 ft 268 kts 108°
2026-04-17 17:06 41.60297 14.09490 22954 ft 269 kts 108°
2026-04-17 17:07 41.59576 14.11802 22954 ft 270 kts 108°
2026-04-17 17:07 41.58853 14.14112 22954 ft 270 kts 108°
2026-04-17 17:07 41.58130 14.16425 22954 ft 270 kts 108°
2026-04-17 17:07 41.57408 14.18735 22953 ft 269 kts 108°
2026-04-17 17:08 41.56685 14.21046 22958 ft 269 kts 108°
2026-04-17 17:08 41.55970 14.23330 22950 ft 270 kts 108°
2026-04-17 17:08 41.55245 14.25644 22951 ft 270 kts 108°
2026-04-17 17:08 41.54519 14.27956 22950 ft 270 kts 108°
2026-04-17 17:09 41.53793 14.30269 22949 ft 270 kts 108°
2026-04-17 17:09 41.53067 14.32580 22946 ft 269 kts 108°
2026-04-17 17:09 41.52343 14.34882 22950 ft 269 kts 108°
2026-04-17 17:09 41.51616 14.37191 22951 ft 270 kts 108°
2026-04-17 17:10 41.50889 14.39498 22956 ft 270 kts 108°
2026-04-17 17:10 41.50160 14.41810 22953 ft 270 kts 108°
2026-04-17 17:10 41.49432 14.44116 22954 ft 270 kts 108°
2026-04-17 17:10 41.48703 14.46425 22954 ft 270 kts 108°
2026-04-17 17:11 41.47971 14.48739 22949 ft 270 kts 108°
2026-04-17 17:11 41.47242 14.51046 22954 ft 270 kts 108°
2026-04-17 17:11 41.46756 14.52579 22954 ft 270 kts 108°
2026-04-17 17:11 41.45788 14.55635 22954 ft 270 kts 108°
2026-04-17 17:12 41.45056 14.57943 22954 ft 270 kts 108°
2026-04-17 17:12 41.44324 14.60246 22954 ft 270 kts 108°
2026-04-17 17:12 41.43591 14.62554 22954 ft 270 kts 108°
2026-04-17 17:12 41.43106 14.64081 22953 ft 270 kts 108°
2026-04-17 17:13 41.42372 14.66386 22959 ft 270 kts 108°
2026-04-17 17:13 41.41637 14.68694 22955 ft 270 kts 108°
2026-04-17 17:13 41.40904 14.70993 22954 ft 270 kts 108°
2026-04-17 17:13 41.40168 14.73300 22953 ft 270 kts 108°
2026-04-17 17:14 41.39434 14.75599 22957 ft 270 kts 108°
2026-04-17 17:14 41.38701 14.77894 22956 ft 270 kts 108°
2026-04-17 17:14 41.37964 14.80197 22953 ft 269 kts 108°
2026-04-17 17:15 41.36493 14.84791 22952 ft 269 kts 108°
2026-04-17 17:15 41.35766 14.87057 22954 ft 269 kts 108°
2026-04-17 17:15 41.35030 14.89350 22952 ft 270 kts 108°
2026-04-17 17:15 41.34293 14.91645 22953 ft 269 kts 108°
2026-04-17 17:16 41.33555 14.93942 22955 ft 270 kts 108°
2026-04-17 17:16 41.32817 14.96235 22955 ft 270 kts 108°
2026-04-17 17:16 41.32076 14.98536 22955 ft 270 kts 108°
2026-04-17 17:16 41.31335 15.00834 22954 ft 270 kts 108°
2026-04-17 17:17 41.30595 15.03129 22957 ft 270 kts 108°
2026-04-17 17:17 41.29854 15.05424 22957 ft 270 kts 108°
2026-04-17 17:17 41.29110 15.07724 22957 ft 270 kts 108°
2026-04-17 17:17 41.28370 15.10014 22957 ft 270 kts 109°
2026-04-17 17:18 41.27628 15.12305 22950 ft 269 kts 109°
2026-04-17 17:18 41.26887 15.14594 22950 ft 270 kts 109°
2026-04-17 17:18 41.26154 15.16853 22949 ft 270 kts 108°
2026-04-17 17:18 41.25410 15.19148 22949 ft 270 kts 108°
2026-04-17 17:19 41.24665 15.21440 22949 ft 270 kts 108°
2026-04-17 17:19 41.23919 15.23735 22948 ft 270 kts 109°
2026-04-17 17:19 41.23175 15.26023 22950 ft 270 kts 109°
2026-04-17 17:19 41.22430 15.28314 22950 ft 270 kts 109°
2026-04-17 17:20 41.21691 15.30581 22949 ft 271 kts 109°
2026-04-17 17:20 41.20934 15.32901 22948 ft 270 kts 109°
2026-04-17 17:20 41.20195 15.35162 22948 ft 270 kts 109°
2026-04-17 17:20 41.19447 15.37453 22947 ft 270 kts 109°
2026-04-17 17:21 41.18699 15.39743 22947 ft 269 kts 109°
2026-04-17 17:21 41.17952 15.42024 22946 ft 269 kts 109°
2026-04-17 17:21 41.17206 15.44302 22946 ft 269 kts 109°
2026-04-17 17:21 41.16460 15.46580 22947 ft 269 kts 109°
2026-04-17 17:22 41.15714 15.48856 22949 ft 269 kts 109°
2026-04-17 17:22 41.14966 15.51134 22947 ft 269 kts 109°
2026-04-17 17:22 41.14217 15.53412 22947 ft 270 kts 109°
2026-04-17 17:22 41.13477 15.55667 22948 ft 270 kts 109°
2026-04-17 17:23 41.12724 15.57954 22946 ft 271 kts 109°
2026-04-17 17:23 41.11969 15.60246 22947 ft 271 kts 109°
2026-04-17 17:23 41.11214 15.62534 22947 ft 271 kts 109°
2026-04-17 17:23 41.10459 15.64824 22955 ft 271 kts 109°
2026-04-17 17:24 41.09702 15.67118 22952 ft 271 kts 110°
2026-04-17 17:24 41.08946 15.69405 22953 ft 271 kts 110°
2026-04-17 17:24 41.08189 15.71694 22953 ft 271 kts 110°
2026-04-17 17:24 41.07431 15.73985 22953 ft 271 kts 110°
2026-04-17 17:25 41.06674 15.76269 22950 ft 271 kts 110°
2026-04-17 17:25 41.05916 15.78556 22948 ft 271 kts 110°
2026-04-17 17:25 41.05158 15.80839 22948 ft 271 kts 110°
2026-04-17 17:25 41.04399 15.83124 22947 ft 271 kts 110°
2026-04-17 17:26 41.03639 15.85411 22950 ft 271 kts 110°